• Retour au menu

    Bienvenue à l'aéro-club Gascon

    Piloter un avion dans le Gers
    Piloter un avion dans le Gers

    L'aéro-club Gascon est basé sur l'aéroport Auch-Gers en plein cœur du Gers et de la Gascogne.
    Affilié à la FFA, il accueille des passionnés d'aéronautique qui peuvent y apprendre et pratiquer l'art du pilotage.


    Apprendre à piloter
    Apprendre à piloter

    Que l'on veuille piloter un avion pour le plaisir ou pour en faire son métier, il faut commencer par les bases du pilotage.
    Pilotes amateurs ou professionnels, tous ont commencé par une formation de pilote privé, le plus fréquemment au sein d'un aéro-club.


    Le Gers vu du ciel
    Le Gers vu du ciel

    Réalisez votre rêve et faites le plein de sensations en effectuant un baptème de l'air en Gascogne.
    D'une durée d'une demi-heure et pour un coût de 75 € le vol, vous partirez à la découverte du ciel aux côtés d'un pilote professionnel !

    Les News

    01
    nov

    Arrivée du C 152


    Afin de répondre à une demande de plus en plus forte de ses membres, l'aéro-club Gascon se dote d'un 2ème avion. Il s'agit d'un C 152 loué à la société boutique.aero.
    Dans un premier temps, cet avion sera reservé aux pilotes brevetés.
    Bons vols à tous.

    26
    sep

    Formation météorologique

    6-7
    sep

    Foire du Sport & de la Culture

    14
    jun

    Jour le plus long

    13
    jun

    Journée commémorative
    BA 118 Mont de Marsan

  • Retour au menu

    PPL(A)

    PPL(A)

    La licence de pilote privé avion PPL(A) est une licence européenne qui permet à son titulaire d'exercer les fonctions de commandant de bord de tout avion effectuant des vols non rémunérés, et pour lequel il possède les qualifications requises.

    en savoir plus

    LAPL

    LAPL

    La licence LAPL est une licence européenne non reconnue par l'OACI qui permet à son titulaire d'exercer les fonctions de commandant de bord sur des avions monomoteur à pistons d'une masse maximale de 2 tonnes, transportant 3 passagers maximum.

    en savoir plus

    Vol de nuit

    Vol de nuit

    L'aptitude au vol de nuit est une qualification qui permet à son titulaire d'exercer tous les privilèges du PPL(A) de nuit, mais également d'accéder à une formation de pilote professionnel et de vols aux instruments (IFR).

    en savoir plus
  • Retour

    PPL(A)

    La licence de pilote privé avion PPL(A) est une licence européenne qui permet à son titulaire d'exercer les fonctions de commandant de bord de tout avion effectuant des vols non rémunérés, et pour lequel il possède les qualifications requises.

    La formation se compose d'une partie théorique et d'une partie pratique, chacune étant sanctionnée par un examen.

    L'apprentissage théorique et pratique se fait en parallèle sur une période de 3 à 18 mois selon vos disponibilités, pour un coût moyen de 8000 €.

    Pour accéder à la formation il faut :
    - être âgé de 16 ans lors du premier vol seul à bord (la formation peut débuter avant cet âge) ;
    - avoir satisfait à une visite médicale effectuée par un médecin aéronautique agréé.

    La préparation à l'examen théorique se fait au sein de l'aéroclub Gascon, soit en salle (100 heures de cours), soit en e-Learning en partenariat avec l'Institut Mermoz.

    L'examen théorique comporte 2 modules regroupant 9 matières, et se présente sous forme de QCM (120 questions) auxquelles il faut un taux de réussite de 75 %.

    Les séances de formation pratique se composent d'un briefing avant le vol, du vol puis d'un débriefing.

    Au cours de cette formation, vous apprendrez les bases du pilotage ainsi que les différentes techniques de navigation et vous bénéficierez d'une initiation au vol sans visibilité.

    Pour se présenter au test pratique PPL(A), les candidats doivent avoir 17 ans révolus et avoir effectué au moins 45 heures d'instruction sur avion dont 25 heures de vol en double commande avec instructeur et 10 heures de vol en solo supervisé dont 5 heures de vol sur la campagne avec un vol de navigation d'un minimum de 150 Nm avec 2 atterrissages intermédiaires complets.

    A l'issue du PPL(A), le pilote peut obtenir des qualifications supplémentaires permettant de voler la nuit, de voler aux instruments ou d'utiliser des avions plus complexes.

  • Retour

    LAPL

    La licence LAPL est une licence européenne non reconnue par l'OACI qui permet à son titulaire d'exercer les fonctions de commandant de bord sur des avions monomoteur à pistons d'une masse maximale de 2 tonnes, transportant 3 passagers maximum.

    Néanmoins, les titulaires d'une licence LAPL ne peuvent transporter des passagers qu'une fois qu'ils ont effectué, après la délivrance de la licence, 10 heures de vol en qualité de commandant de bord.

    La formation se compose d'une partie théorique et d'une partie pratique, chacune étant sanctionnée par un examen.

    L'apprentissage théorique et pratique se fait en parallèle sur une période de 3 à 18 mois selon vos disponibilités, pour un coût moyen de 6500 €.

    Pour accéder à la formation il faut :
    - être âgé de 16 ans lors du premier vol seul à bord (la formation peut débuter avant cet âge) ;
    - avoir satisfait à une visite médicale effectuée par un médecin aéronautique agréé.

    La préparation à l'examen théorique se fait au sein de l'aéroclub Gascon, soit en salle (100 heures de cours), soit en e-Learning en partenariat avec l'Institut Mermoz.

    L'examen théorique, identique à celui du PPL(A), comporte 2 modules regroupant 9 matières, et se présente sous forme de QCM (120 questions) auxquelles il faut un taux de réussite de 75 %.

    Les séances de formation pratique se composent d'un briefing avant le vol, du vol puis d'un débriefing.

    Au cours de cette formation, vous apprendrez les bases du pilotage ainsi que les différentes techniques de navigation.

    Pour se présenter au test pratique LAPL, les candidats doivent avoir 17 ans révolus et avoir effectué au moins 30 heures d'instruction sur avion dont 15 heures de vol en double commande avec instructeur et 6 heures de vol en solo supervisé dont 3 heures de vol sur la campagne avec un vol de navigation d'un minimum de 80 Nm avec 1 atterrissage complet sur un aérodrome autre que celui de départ.

  • Retour

    Vol de nuit

    L'aptitude au vol de nuit est une qualification qui permet à son titulaire d'exercer tous les privilèges du PPL(A) de nuit, mais également d'accéder à une formation de pilote professionnel et de vols aux instruments (IFR).

    Cette formation, qui fait appel à d'autres références que celles utilisées habituellement par le pilote VFR, est également utile lorsque les conditions de vol sont dégradées car le pilotage devra alors être basé sur les instruments et la radionavigation pour déterminer l'attitude et la position de l'avion.

    Pour accéder à la formation il faut :
    - être titulaire d'un certificat médical de classe LAPL, 1 ou 2 valide ;
    - être titulaire d'une licence PPL(A) et d'une qualification SEP(T) en état de validité,
    ou
    - être titulaire d'une licence LAPL répondant aux conditions d'expérience récente (FCL 140 A).
    Dans ce cas, le pilote devra avoir effectué la formation de base au vol aux instruments nécessaire à la délivrance du PPL(A).

    La formation se compose d'une partie théorique et d'une partie pratique, validées par l'instructeur en charge de la formation.

    Pour se voir délivrer la qualification vol de nuit, le pilote doit effectuer au minimum 5 heures de vol de nuit dont au moins 3 heures d'instruction en double commande, incluant au moins 1 heure de navigation en campagne avec au minimum 1 vol d'au-moins 50 km, ainsi que 5 décollages et 5 atterrissages complets en solo.

  • Retour au menu

    Voler à Auch

    Voler à Auch
    L'aéroport Auch - Gers

    Situé au Nord de la ville de Auch, l'aéroport Auch-Gers dispose d'une piste revêtue de 1900m, équipée pour le VFR de nuit.
    Un service AFIS rendu aux vols VFR et IFR, un STAP et un PCL permettent d'utiliser toutes les fonctionnalités de la piste.


    Robin DR 400/140B
    Robin DR 400/140B

    Equipé VFR de nuit et disposant d'une autonomie de 4 h 30, le DR 400 est adapté aux vols d'instruction ainsi qu'aux voyages.
    Au 1er mai 2014, le tarif de l'heure de vol est de 130 € pour les pilotes brevetés et de 145 € pour les élèves-pilotes.


    Robin DR 400/140B
    Cessna 152

    L'élégance, la grande malléabilité et le plaisir qu'on retrouve à piloter ce biplace font du C152 un avion extrêmement populaire.
    Au 1er novembre 2014, le tarif de l'heure de vol est de 98 € pour les pilotes brevetés et de 113 € pour les élèves-pilotes.


    METAR et TAF
    Messages METAR et TAF

    Sélection de messages METAR et TAF du grand Sud-Ouest


    Cliquer pour afficher


    Accès membres








  • Retour

    Messages METAR et TAF

    Agen La Garenne - LFBA
    METAR LFBA 281030Z AUTO 11015KT 9999 NSC 19/11 Q0989=
    TAF indisponible

    Bergerac Roumanière - LFBE
    METAR LFBE 281030Z AUTO 11014G24KT 080V140 9999 NSC 19/10 Q0990=
    TAF indisponible

    Biarritz Bayonne Anglet - LFBZ
    METAR LFBZ 281030Z 16010G21KT 130V210 9999 FEW033 SCT160 BKN260 18/07 Q0987 TEMPO 17012G22KT=
    TAF LFBZ 280500Z 2806/2906 13012KT 9999 SCT070 BKN090 TEMPO 2806/2815 15015G30KT PROB30 TEMPO 2806/2812 15030G45KT PROB30 TEMPO 2821/2906 -RA=

    Bordeaux Mérignac - LFBD
    METAR LFBD 281030Z AUTO 12015KT 9999 NSC 17/11 Q0989=
    TAF TAF LFBD 280500Z 2806/2912 12013KT CAVOK TEMPO 2809/2903 13015G25KT PROB30 TEMPO 2909/2912 -RA=

    Mont de Marsan - LFBM
    METAR LFBM 281030Z AUTO 13004KT 090V160 9999 NSC 15/09 Q0989=
    TAF LFBM 280500Z 2806/2906 11010KT CAVOK TEMPO 2806/2906 10015G25KT PROB30 TEMPO 2806/2809 11015G40KT PROB30 TEMPO 2818/2906 11015G40KT=

    Pau Pyrénées - LFBP
    METAR LFBP 281030Z 16004KT 9999 SCT093 BKN260 14/08 Q0989 NOSIG=
    TAF LFBP 280500Z 2806/2906 05005KT 9999 SCT070 PROB30 TEMPO 2806/2808 3000 MIFG=

    Tarbes Lourdes Pyrénées - LFBT
    METAR LFBT 281030Z AUTO 20002KT 9999 BKN100 14/09 Q0989=
    TAF LFBT 280500Z 2806/2906 15006KT 9999 SCT070 PROB30 TEMPO 2806/2809 5000 -TSRA BKN050CB BKN100 PROB30 TEMPO 2806/2807 0800 BCFG BKN002=

    Toulouse Blagnac - LFBO
    METAR LFBO 281030Z AUTO 11021KT 9999 NSC 19/10 Q0990=
    TAF LFBO 280500Z 2806/2912 12020G35KT CAVOK TEMPO 2808/2816 12025G45KT BECMG 2904/2906 12015G30KT=

  • Retour au menu

    Pour venir

    Place René Maret
    Aérodrome d'Auch-Gers
    32000 AUCH
    Téléphone : 05 62 63 37 23

    Nous contacter